Starlink 32273

operational
NORAD ID: 61956 Int'l Des: 2024-209 Owner: SPXS Country: US Constellation: starlink
LEOCIRCULAR

关于 Starlink 32273

正在加载描述...

实时位置

正在加载3D地球...

即将过境

高度历史

Altitude vs Time

uPlot chart will show altitude changes over time

两行轨道根数

1 61956U 24209T 26095.17293013 .00054678 00000-0 18467-2 0 9990
2 61956 53.1615 19.2440 0001175 81.2329 278.8805 15.30165056 78958
Epoch: Apr 5, 2026 • Age: 10 hours

当前状态

高度 478.9 km
速度 7.63 km/s
星下点 -12.53°S, 156.79°E
发射日期 Nov 14, 2024
运行时间 1.3 years
类型 internet

技术详情

分类 Payload
质量 730.00 kg
干质量 700.00 kg
总质量 730.00 kg
长度 0.30 m
直径 4.10 m
跨度 29.00 m
形状 Box + pan
制造商 SPXS
平台类型 Starlink V2M
阶段状态 In Orbit
所有者/国家 SPXS/US

大型星座

Loading constellations...